User: anonymous   Login
Location: Black Rock Desert
(40.7548°N, 119.2364°W)
Time: 18:41:15
(UTC-08:00)
Language:

Cosmos 1340 Rocket - Orbit

View from above orbital plane
View from above orbital plane
View from above satellite
View from above satellite

Ground track
Ground track

The orbit data is extracted from the following two-line orbital elements,

1 13068U 82013B   14330.16848232  .00001816  00000-0  12615-3 0  5616
2 13068 081.2043 207.6300 0023430 154.1599 206.0799 15.04866114782895
Epoch (UTC): 26 November 2014 04:02:36
Eccentricity: 0.0023430
inclination: 81.2043°
perigee height: 535 km
apogee height: 568 km
right ascension of ascending node: 207.6300°
argument of perigee: 154.1599°
revolutions per day: 15.04866114
mean anomaly at epoch: 206.0799°
orbit number at epoch: 78289

The dashed part of the orbit path shows where the satellite is in the earth's shadow,  

DLR